Canadian, TX

4:29 AM CDT on June 27, 2017 (GMT -0500)
Hemphill County

Weather History for KHHF - November, 2014

Change the Weather History Date:

Sunday, November 9, 2014

  Actual Average (KPPA) Record (KPPA)
Temperature  
Mean Temperature 57 °F -  
Max Temperature 76 °F 62 °F 88 °F (1980)
Min Temperature 38 °F 35 °F 23 °F (1977)
Degree Days  
Heating Degree Days 8    
Growing Degree Days 7 (Base 50)    
Moisture  
Dew Point 37 °F    
Average Humidity 55    
Maximum Humidity 94    
Minimum Humidity 19    
Precipitation  
Precipitation 0.00 in - - ()
Sea Level Pressure  
Sea Level Pressure 29.84 in    
Wind  
Wind Speed 4 mph (SW)    
Max Wind Speed 10 mph    
Max Gust Speed -    
Visibility 10 miles    
Events      
Averages and records for this station are not official NWS values.
T = Trace of Precipitation, MM = Missing Value Source: NWS Daily Summary

Daily Weather History Graph

Daily Weather History Graph

Search for Another Location

Airport or City:

Trip Planner

Search our weather history database for the weather conditions in past years. The results will help you decide how hot, cold, wet, or windy it might be!

Date:

Astronomy

Nov. 09, 2014 Rise Set
Actual Time 7:11 AM CST 5:38 PM CST
Civil Twilight 6:44 AM CST 6:05 PM CST
Nautical Twilight 6:14 AM CST 6:36 PM CST
Astronomical Twilight 5:44 AM CST 7:06 PM CST
Moon 8:14 PM CST (11/9) 9:44 AM CST (11/9)
Length of Visible Light 11h 20m
Length of Day
10h 26m
Waning Gibbous, 91% of the Moon is Illuminated
Nov 9
Waning Gibbous
Nov 14
Last Quarter
Nov 22
New
Nov 29
First Quarter
Dec 6
Full

Hourly Weather History & Observations

Time (CST) Temp. Windchill Dew Point Humidity Pressure Visibility Wind Dir Wind Speed Gust Speed Precip Events Conditions
12:15 AM 46.0 °F 43.1 °F 39.0 °F 76% 30.08 in 10.0 mi WSW 5.8 mph - N/A   Clear
12:35 AM 46.4 °F 44.3 °F 39.2 °F 76% 30.07 in 10.0 mi SW 4.6 mph - N/A   Clear
12:55 AM 44.1 °F 42.5 °F 38.1 °F 80% 30.05 in 10.0 mi SSW 3.5 mph - N/A   Clear
1:15 AM 47.8 °F - 39.7 °F 74% 30.05 in 10.0 mi Calm Calm - N/A   Clear
1:35 AM 48.6 °F - 39.7 °F 72% 30.04 in 10.0 mi Calm Calm - N/A   Clear
1:55 AM 48.4 °F - 39.4 °F 71% 30.03 in 10.0 mi SW 3.5 mph - N/A   Clear
2:15 AM 48.7 °F - 40.1 °F 72% 30.02 in 10.0 mi SW 6.9 mph - N/A   Clear
2:35 AM 48.2 °F - 41.0 °F 76% 30.01 in 10.0 mi SSW 10.4 mph - N/A   Clear
2:55 AM 48.9 °F - 41.2 °F 75% 30.00 in 10.0 mi SSW 10.4 mph - N/A   Clear
3:15 AM 50.0 °F - 41.2 °F 72% 29.99 in 10.0 mi SSW 9.2 mph - N/A   Clear
3:35 AM 50.0 °F - 41.2 °F 72% 29.98 in 10.0 mi SSW 10.4 mph - N/A   Clear
3:55 AM 49.3 °F - 41.0 °F 73% 29.96 in 10.0 mi SSW 10.4 mph - N/A   Clear
4:15 AM 48.6 °F - 40.5 °F 74% 29.95 in 10.0 mi WSW 5.8 mph - N/A   Clear
4:35 AM 46.4 °F 44.3 °F 39.9 °F 78% 29.95 in 10.0 mi SW 4.6 mph - N/A   Clear
4:55 AM 45.9 °F 43.6 °F 39.9 °F 80% 29.94 in 10.0 mi SSW 4.6 mph - N/A   Clear
5:15 AM 43.9 °F 39.3 °F 39.2 °F 84% 29.93 in 10.0 mi SSW 8.1 mph - N/A   Clear
5:35 AM 42.4 °F - 38.5 °F 86% 29.94 in 10.0 mi Calm Calm - N/A   Clear
5:55 AM 43.2 °F 41.5 °F 39.2 °F 86% 29.93 in 10.0 mi SSW 3.5 mph - N/A   Clear
6:15 AM 41.9 °F - 38.3 °F 87% 29.93 in 10.0 mi Calm Calm - N/A   Clear
6:35 AM 42.1 °F - 38.8 °F 88% 29.92 in 10.0 mi Calm Calm - N/A   Clear
6:55 AM 40.5 °F - 37.8 °F 90% 29.92 in 10.0 mi Calm Calm - N/A   Clear
7:15 AM 40.3 °F 37.1 °F 37.8 °F 91% 29.93 in 10.0 mi WSW 4.6 mph - N/A   Clear
7:35 AM 38.3 °F - 36.7 °F 94% 29.94 in 10.0 mi Calm Calm - N/A   Clear
7:55 AM 39.7 °F - 37.9 °F 93% 29.94 in 10.0 mi Calm Calm - N/A   Clear
8:15 AM 41.7 °F 39.8 °F 39.4 °F 91% 29.94 in 10.0 mi WSW 3.5 mph - N/A   Clear
8:35 AM 43.0 °F - 40.1 °F 90% 29.94 in 10.0 mi Calm Calm - N/A   Clear
8:55 AM 46.8 °F - 41.7 °F 83% 29.94 in - Calm Calm - N/A   Clear
9:15 AM 48.7 °F - 42.3 °F 78% 29.93 in - Calm Calm - N/A   Clear
9:35 AM 51.3 °F - 42.4 °F 72% 29.92 in 10.0 mi Calm Calm - N/A   Clear
9:55 AM 55.2 °F - 42.6 °F 63% 29.91 in 10.0 mi SW 3.5 mph - N/A   Clear
10:15 AM 59.2 °F - 40.5 °F 50% 29.90 in - West 3.5 mph - N/A   Clear
10:35 AM 61.3 °F - 36.7 °F 40% 29.90 in - West 6.9 mph - N/A   Clear
10:55 AM 63.3 °F - 36.3 °F 37% 29.89 in - WNW 6.9 mph - N/A   Clear
11:15 AM 64.6 °F - 36.1 °F 35% 29.89 in - West 4.6 mph - N/A   Clear
11:35 AM 66.4 °F - 36.0 °F 33% 29.88 in - WNW 5.8 mph - N/A   Clear
11:55 AM 66.2 °F - 35.4 °F 32% 29.87 in - WNW 3.5 mph - N/A   Clear
12:15 PM 67.8 °F - 35.8 °F 31% 29.86 in - NW 5.8 mph - N/A   Clear
12:35 PM 69.6 °F - 35.6 °F 29% 29.84 in - Calm Calm - N/A   Clear
12:55 PM 70.0 °F - 34.5 °F 27% 29.83 in - Calm Calm - N/A   Clear
1:15 PM 71.8 °F - 33.4 °F 24% 29.82 in - West 3.5 mph - N/A   Clear
1:35 PM 72.3 °F - 33.1 °F 24% 29.81 in 10.0 mi SW 3.5 mph - N/A   Clear
1:55 PM 73.8 °F - 34.0 °F 23% 29.80 in 10.0 mi SW 6.9 mph - N/A   Clear
2:15 PM 73.8 °F - 33.1 °F 23% 29.79 in 10.0 mi WNW 3.5 mph - N/A   Clear
2:35 PM 73.8 °F - 32.7 °F 22% 29.77 in 10.0 mi SW 3.5 mph - N/A   Clear
2:55 PM 74.7 °F - 32.2 °F 21% 29.77 in 10.0 mi SW 3.5 mph - N/A   Clear
3:15 PM 76.8 °F - 32.0 °F 19% 29.76 in 10.0 mi SSW 3.5 mph - N/A   Clear
3:35 PM 76.3 °F - 32.0 °F 20% 29.75 in 10.0 mi SW 6.9 mph - N/A   Clear
3:55 PM 75.2 °F - 32.0 °F 21% 29.75 in 10.0 mi SW 3.5 mph - N/A   Clear
4:15 PM 76.1 °F - 31.5 °F 20% 29.75 in - SW 5.8 mph - N/A   Clear
4:35 PM 74.1 °F - 32.7 °F 22% 29.74 in - Calm Calm - N/A   Clear
4:55 PM 73.8 °F - 32.9 °F 22% 29.73 in - Calm Calm - N/A   Clear
5:15 PM 69.3 °F - 37.8 °F 32% 29.73 in - Calm Calm - N/A   Clear
5:35 PM 66.6 °F - 37.4 °F 34% 29.72 in - South 5.8 mph - N/A   Clear
5:55 PM 62.6 °F - 36.1 °F 37% 29.72 in - South 6.9 mph - N/A   Clear
6:15 PM 63.3 °F - 34.5 °F 34% 29.72 in - SSE 8.1 mph - N/A   Clear
6:35 PM 59.4 °F - 34.9 °F 40% 29.72 in - Calm Calm - N/A   Clear
6:55 PM 59.5 °F - 35.2 °F 40% 29.70 in - Calm Calm - N/A   Clear
7:15 PM 57.6 °F - 35.6 °F 44% 29.70 in - Calm Calm - N/A   Clear
7:35 PM 58.6 °F - 36.0 °F 43% 29.69 in - Calm Calm - N/A   Clear
7:55 PM 55.9 °F - 36.9 °F 49% 29.69 in - Calm Calm - N/A   Clear
8:15 PM 57.4 °F - 36.5 °F 46% 29.68 in 10.0 mi Calm Calm - N/A   Clear
8:35 PM 56.3 °F - 36.7 °F 48% 29.67 in 10.0 mi Calm Calm - N/A   Clear
8:55 PM 54.7 °F - 37.8 °F 53% 29.66 in 10.0 mi WSW 3.5 mph - N/A   Clear
9:15 PM 52.0 °F - 39.4 °F 62% 29.66 in - WSW 6.9 mph - N/A   Clear
9:35 PM 52.3 °F - 38.7 °F 60% 29.65 in - WSW 6.9 mph - N/A   Clear
9:55 PM 51.6 °F - 39.0 °F 62% 29.64 in - WSW 6.9 mph - N/A   Clear
10:15 PM 51.8 °F - 39.4 °F 63% 29.63 in - SW 6.9 mph - N/A   Clear
10:35 PM 53.8 °F - 39.2 °F 58% 29.62 in 10.0 mi SW 5.8 mph - N/A   Clear
10:55 PM 53.6 °F - 39.2 °F 58% 29.61 in 10.0 mi WSW 3.5 mph - N/A   Clear
11:15 PM 56.1 °F - 38.3 °F 51% 29.60 in 10.0 mi WSW 4.6 mph - N/A   Clear
11:35 PM 60.1 °F - 38.7 °F 45% 29.59 in - SW 8.1 mph - N/A   Clear
11:55 PM 60.8 °F - 38.3 °F 43% 29.58 in - SW 9.2 mph - N/A   Clear